Regional Weather Roundup
Issued by NWS State College, PA

Home | Current Version | Previous Version | Text Only | Print | Product List | Glossary On
Versions: 1 2 3 4 5 6 7 8 9 10 11 12 13 14 15 16 17 18 19 20 21 22 23 24 25 26 27 28 29 30 31 32 33 34 35 36 37 38 39 40 41 42 43 44 45 46 47 48 49 50
000
ASUS41 KCTP 271703
RWRCTP

REGIONAL WEATHER ROUNDUP
NATIONAL WEATHER SERVICE STATE COLLEGE PA
100 PM EDT WED JUL 27 2016

Note: "fair" indicates few or no clouds below 12,000 feet with no
significant weather and/or obstructions to visibility.

* = STATION THAT DOES NOT REPORT PRECIPITATION /E.G. RAIN...SNOW...ETC/
    THUNDER OR FOG.

PAZ002>004-007>009-013>016-020>023-029>032-271800-
WESTERN PENNSYLVANIA

CITY           SKY/WX    TMP DP  RH WIND       PRES   REMARKS
ERIE           SUNNY     83  62  49 NW9       30.02S
MEADVILLE      MOSUNNY   81  59  47 N7        30.05F
FRANKLIN*      MOSUNNY   81  59  47 NW6       30.06F
NEW CASTLE     FAIR      83  59  44 CALM      30.04F
BEAVER COUNTY  SUNNY     84  55  37 CALM      30.04S
BUTLER*        SUNNY     82  57  42 NE6       30.07S
PITTSBURGH INT MOSUNNY   85  56  37 CALM      30.03S
PITTSBURGH     PTSUNNY   82  56  40 NW6       30.03S
INDIANA*       SUNNY     84  55  37 NW8       30.07S
LATROBE        MOSUNNY   84  63  48 VRB7      30.04F
WASHINGTON CO* PTSUNNY   84  63  48 W5        30.04S
$$

PAZ004>006-010>012-017>019-024>028-033>037-041-042-045-046-049>053-271800-
CENTRAL PENNSYLVANIA

CITY           SKY/WX    TMP DP  RH WIND       PRES   REMARKS
BRADFORD       MOSUNNY   80  58  46 N8        30.08S
DUBOIS         SUNNY     82  55  39 N8        30.06S
CLEARFIELD     SUNNY     84  55  36 NE3       30.05S
JOHNSTOWN      MOSUNNY   81  56  42 N9        30.08S
ALTOONA        MOSUNNY   84  56  38 VRB5      30.04F
STATE COLLEGE  MOSUNNY   82  63  51 S3        30.02F
WILLIAMSPORT   MOSUNNY   86  59  39 VRB5      29.97F
SELINSGROVE    MOSUNNY   85  69  58 VRB3      29.99F
FT INDIANTOWN  CLOUDY    86  63  45 SW7       29.97F
CAPITAL CITY   SUNNY     88  61  40 CALM      29.97S
HARRISBURG     MOSUNNY   89  67  47 S7        29.96F
YORK           SUNNY     86  65  49 VRB5      29.97F
$$

PAZ038>040-043-044-047-048-054-055-060>062-067>071-271800-
EASTERN PENNSYLVANIA

CITY           SKY/WX    TMP DP  RH WIND       PRES   REMARKS
SCRANTON       SUNNY     87  57  35 N9        29.99F
MOUNT POCONO   SUNNY     81  52  36 W12G23    30.04S
ALLENTOWN      SUNNY     87  64  46 CALM      29.97F
QUAKERTOWN*    SUNNY     86  63  45 CALM      29.98F
READING        MOSUNNY   89  60  37 S5        29.95F
LANCASTER      CLOUDY    85  63  47 NE6       29.97F
COATESVILLE    CLOUDY    86  68  54 N6        29.99F
POTTSTOWN      SUNNY     86  62  44 VRB5      29.98S
BLUE BELL      MOSUNNY   86  64  48 CALM      29.95F
DOYLESTOWN     SUNNY     86  62  44 VRB5      29.96F
WILLOW GROVE   NOT AVBL
NORTH PHILA    SUNNY     90  65  43 CALM      29.96F
PHILADELPHIA   MOSUNNY   90  65  43 VRB5      29.95S
$$




USA.gov is the U.S. government's official web portal to all federal, state and local government web resources and services.